Simultaneous Nadir Overpasses (SNOs) Predictions

Prediction of SNOs between FY3D and METOP-C Satellite Orbit:

Table of predicted SNOs for the next 14.0 days since TLE Epoch: 5/14/2022
Index Date (FY3D) Time (FY3D) Lat,Lon (FY3D) SZA (FY3D ) Date (METOP-C) Time (METOP-C) Lat,Lon (METOP-C) SZA (METOP-C ) Distance(km) Time Diff (sec)
1 05/18/2022 07:09:48 -74.60,-114.41 124.96 05/18/2022 07:10:55 -74.55,-111.59 125.09 83.51 67
2 05/18/2022 08:00:30 74.41, 53.40 54.84 05/18/2022 08:01:39 74.36, 55.26 54.73 56.07 69
3 05/18/2022 08:51:12 -74.24,-138.84 125.36 05/18/2022 08:52:24 -74.18,-137.87 125.45 30.15 72
4 05/18/2022 09:41:54 74.05, 28.94 54.44 05/18/2022 09:43:07 74.04, 29.12 54.41 5.47 73
5 05/18/2022 10:32:39 -74.03,-163.68 125.60 05/18/2022 10:33:49 -74.01,-163.63 125.63 2.35 70
6 05/18/2022 11:23:24 73.99, 3.73 54.35 05/18/2022 11:24:29 74.02, 3.72 54.37 3.40 65
7 05/18/2022 12:14:10 -74.01, 170.99 125.64 05/18/2022 12:15:11 -73.99, 170.97 125.67 2.41 61
8 05/18/2022 13:04:56 74.02, -21.72 54.37 05/18/2022 13:05:51 73.99, -21.68 54.34 2.96 55
9 05/18/2022 13:55:41 -73.99, 145.66 125.67 05/18/2022 13:56:32 -74.01, 145.70 125.66 2.89 51
10 05/18/2022 14:46:27 74.00, -47.06 54.33 05/18/2022 14:47:13 73.97, -47.08 54.30 3.27 46
11 05/18/2022 15:37:12 -73.97, 120.32 125.71 05/18/2022 15:37:54 -73.99, 120.30 125.69 2.17 42
12 05/18/2022 16:27:58 73.98, -72.39 54.30 05/18/2022 16:28:34 74.00, -72.35 54.31 2.07 36
13 05/18/2022 17:18:43 -73.95, 94.99 125.74 05/18/2022 17:19:16 -73.97, 94.90 125.73 2.99 33
14 05/18/2022 18:09:29 73.96, -97.72 54.26 05/18/2022 18:09:56 73.97, -97.75 54.27 1.43 27
15 05/18/2022 19:00:15 -73.98, 69.53 125.73 05/18/2022 19:00:37 -73.99, 69.63 125.72 3.12 22
16 05/18/2022 19:51:00 73.94,-123.06 54.23 05/18/2022 19:51:18 73.95,-123.15 54.23 2.84 18
17 05/18/2022 20:41:46 -73.96, 44.20 125.76 05/18/2022 20:41:59 -73.97, 44.23 125.76 1.14 13
18 05/18/2022 21:32:32 73.97,-148.51 54.24 05/18/2022 21:32:39 73.97,-148.42 54.24 2.72 7
19 05/18/2022 22:23:17 -73.95, 18.86 125.80 05/18/2022 22:23:21 -73.95, 18.83 125.80 0.91 4
20 05/18/2022 23:14:03 73.95,-173.85 54.21 05/18/2022 23:14:01 73.95,-173.82 54.20 0.91 2
21 05/19/2022 00:04:48 -73.93, -6.47 125.83 05/19/2022 00:04:43 -73.92, -6.56 125.83 2.87 5
22 05/19/2022 00:55:34 73.94, 160.82 54.17 05/19/2022 00:55:23 73.93, 160.78 54.17 1.56 11
23 05/19/2022 01:46:20 -73.96, -31.92 125.81 05/19/2022 01:46:04 -73.95, -31.84 125.82 2.84 16
24 05/19/2022 02:37:05 73.92, 135.48 54.14 05/19/2022 02:36:45 73.90, 135.38 54.13 3.50 20
25 05/19/2022 03:27:51 -73.94, -57.26 125.85 05/19/2022 03:27:26 -73.93, -57.23 125.86 1.69 25
26 05/19/2022 04:18:37 73.95, 110.03 54.16 05/19/2022 04:18:06 73.93, 110.11 54.14 3.20 31
27 05/19/2022 05:09:22 -73.92, -82.59 125.88 05/19/2022 05:08:48 -73.90, -82.63 125.90 2.36 34
28 05/19/2022 06:00:08 73.93, 84.70 54.12 05/19/2022 05:59:28 73.91, 84.71 54.10 2.74 40
29 05/19/2022 06:50:53 -73.90,-107.93 125.92 05/19/2022 06:50:09 -73.93,-107.91 125.89 2.97 44
30 05/19/2022 07:41:39 73.91, 59.36 54.09 05/19/2022 07:40:49 73.93, 59.43 54.11 3.14 50
31 05/19/2022 08:32:24 -73.88,-133.26 125.95 05/19/2022 08:31:31 -73.90,-133.30 125.93 2.71 53
32 05/19/2022 09:23:10 73.89, 34.03 54.05 05/19/2022 09:22:11 73.91, 34.04 54.07 1.69 59
33 05/19/2022 10:13:56 -73.91,-158.72 125.94 05/19/2022 10:12:53 -73.88,-158.70 125.96 3.64 63
34 05/19/2022 11:04:41 73.87, 8.69 54.02 05/19/2022 11:03:33 73.88, 8.64 54.04 2.00 68
35 05/19/2022 11:55:27 -73.89, 175.95 125.97 05/19/2022 11:54:14 -73.91, 176.02 125.95 2.64 73
36 05/19/2022 12:46:10 73.76, -16.40 53.88 05/19/2022 12:44:57 73.76, -16.99 53.91 18.42 73
37 05/19/2022 13:36:53 -73.63, 151.21 126.26 05/19/2022 13:35:41 -73.64, 150.04 126.22 36.52 72
38 05/19/2022 14:27:34 73.39, -40.92 53.48 05/19/2022 14:26:26 73.39, -43.20 53.54 72.24 68
39 05/19/2022 15:18:17 -73.26, 126.67 126.66 05/19/2022 15:17:10 -73.26, 123.86 126.58 90.07 67



Historial Predications of SNOs between FY3D and METOP-C
